DAL7892 KBOS-KJFK

Flight info

Callsign DAL7892
Flight time N/A
Altitude 22000
Route REVSS6 REVSS MARTN ATHOS YODAA PUCKY1
Aircraft B738/M-SDE2E3FGHIRWXY/LB1

Departure

Time 2026-05-06 16:57
Airport Boston Logan International Airport (KBOS)

Arrival

Time N/A
Airport John F. Kennedy International Airport (KJFK)
Time Latitude Longitude Altitude Speed Heading
2026-05-06 16:18 42.37069 -71.01867 24 ft 0 kts 211°
2026-05-06 16:46 42.37074 -71.01864 29 ft 2 kts 211°
2026-05-06 16:46 42.37090 -71.01850 30 ft 3 kts 211°
2026-05-06 16:47 42.37107 -71.01836 25 ft 3 kts 211°
2026-05-06 16:47 42.37122 -71.01824 30 ft 3 kts 201°
2026-05-06 16:47 42.37140 -71.01820 28 ft 3 kts 165°
2026-05-06 16:47 42.37157 -71.01830 29 ft 3 kts 141°
2026-05-06 16:48 42.37171 -71.01847 29 ft 2 kts 124°
2026-05-06 16:48 42.37175 -71.01856 28 ft 0 kts 123°
2026-05-06 16:50 42.37172 -71.01850 28 ft 3 kts 123°
2026-05-06 16:50 42.37144 -71.01792 28 ft 12 kts 123°
2026-05-06 16:51 42.37089 -71.01680 26 ft 15 kts 126°
2026-05-06 16:51 42.37017 -71.01582 24 ft 14 kts 136°
2026-05-06 16:51 42.36953 -71.01489 25 ft 13 kts 130°
2026-05-06 16:51 42.36890 -71.01403 25 ft 13 kts 135°
2026-05-06 16:52 42.36837 -71.01312 26 ft 12 kts 97°
2026-05-06 16:52 42.36887 -71.01224 24 ft 12 kts 38°
2026-05-06 16:52 42.36950 -71.01149 24 ft 12 kts 41°
2026-05-06 16:52 42.37018 -71.01091 27 ft 12 kts 26°
2026-05-06 16:53 42.37089 -71.01044 24 ft 11 kts 26°
2026-05-06 16:53 42.37159 -71.00999 27 ft 11 kts 26°
2026-05-06 16:53 42.37226 -71.00955 29 ft 11 kts 26°
2026-05-06 16:53 42.37292 -71.00912 27 ft 10 kts 24°
2026-05-06 16:54 42.37366 -71.00875 24 ft 13 kts 19°
2026-05-06 16:54 42.37471 -71.00827 26 ft 18 kts 19°
2026-05-06 16:54 42.37610 -71.00763 24 ft 24 kts 19°
2026-05-06 16:54 42.37757 -71.00688 24 ft 16 kts 22°
2026-05-06 16:55 42.37839 -71.00607 26 ft 15 kts 82°
2026-05-06 16:55 42.37797 -71.00489 24 ft 13 kts 149°
2026-05-06 16:55 42.37764 -71.00489 26 ft 0 kts 198°
2026-05-06 16:56 42.37705 -71.00517 27 ft 36 kts 199°
2026-05-06 16:56 42.37245 -71.00739 25 ft 102 kts 200°
2026-05-06 16:56 42.36393 -71.01135 52 ft 151 kts 198°
2026-05-06 16:57 42.35407 -71.01616 842 ft 144 kts 199°
2026-05-06 16:57 42.34402 -71.01682 1512 ft 161 kts 165°
2026-05-06 16:57 42.33405 -71.00674 1982 ft 195 kts 141°
2026-05-06 16:57 42.32525 -70.99130 2324 ft 219 kts 136°
2026-05-06 16:58 42.31659 -70.97394 2924 ft 230 kts 126°
2026-05-06 16:58 42.31269 -70.95123 3314 ft 269 kts 100°
2026-05-06 16:58 42.31496 -70.92421 3569 ft 306 kts 82°
2026-05-06 16:58 42.32024 -70.89644 4500 ft 304 kts 83°
2026-05-06 16:59 42.32489 -70.86841 5333 ft 304 kts 85°
2026-05-06 16:59 42.32869 -70.84036 6211 ft 305 kts 86°
2026-05-06 16:59 42.33154 -70.81220 6881 ft 305 kts 99°
2026-05-06 16:59 42.32715 -70.78507 7597 ft 290 kts 123°
2026-05-06 17:00 42.31834 -70.76087 8410 ft 286 kts 130°
2026-05-06 17:00 42.30823 -70.73778 9165 ft 281 kts 140°
2026-05-06 17:00 42.29373 -70.72238 9915 ft 256 kts 168°
2026-05-06 17:00 42.27687 -70.71641 10478 ft 252 kts 183°
2026-05-06 17:01 42.25939 -70.71799 11007 ft 254 kts 195°
2026-05-06 17:01 42.24174 -70.72212 11646 ft 260 kts 195°
2026-05-06 17:01 42.22379 -70.72644 12355 ft 264 kts 197°
2026-05-06 17:01 42.20682 -70.73548 13042 ft 263 kts 217°
2026-05-06 17:02 42.19328 -70.75229 13721 ft 270 kts 229°
2026-05-06 17:02 42.18295 -70.77477 13887 ft 298 kts 246°
2026-05-06 17:02 42.17784 -70.80300 14048 ft 323 kts 255°
2026-05-06 17:02 42.17381 -70.83376 14185 ft 343 kts 256°
2026-05-06 17:03 42.16963 -70.86629 14341 ft 360 kts 256°
2026-05-06 17:03 42.16518 -70.89993 14780 ft 367 kts 256°
2026-05-06 17:03 42.16171 -70.93415 15377 ft 374 kts 264°
2026-05-06 17:03 42.16497 -70.96945 15933 ft 387 kts 278°
2026-05-06 17:04 42.17244 -71.00463 16466 ft 393 kts 280°
2026-05-06 17:04 42.18037 -71.04010 16991 ft 397 kts 281°
2026-05-06 17:04 42.18841 -71.07585 17522 ft 400 kts 281°
2026-05-06 17:04 42.19644 -71.11189 18056 ft 403 kts 281°
2026-05-06 17:05 42.20445 -71.14831 18494 ft 406 kts 281°
2026-05-06 17:05 42.21243 -71.18496 18957 ft 408 kts 281°
2026-05-06 17:05 42.22040 -71.22180 19438 ft 410 kts 281°
2026-05-06 17:05 42.22837 -71.25887 19882 ft 411 kts 281°
2026-05-06 17:06 42.23631 -71.29590 20306 ft 411 kts 281°
2026-05-06 17:06 42.24426 -71.33309 20661 ft 413 kts 281°
2026-05-06 17:06 42.25225 -71.37051 20981 ft 416 kts 281°
2026-05-06 17:06 42.26025 -71.40811 21331 ft 417 kts 281°
2026-05-06 17:07 42.26827 -71.44582 21703 ft 418 kts 281°
2026-05-06 17:07 42.27622 -71.48327 21857 ft 423 kts 281°
2026-05-06 17:07 42.28438 -71.52184 21859 ft 431 kts 281°
2026-05-06 17:07 42.29276 -71.56151 21890 ft 434 kts 281°
2026-05-06 17:08 42.30087 -71.59978 21878 ft 426 kts 281°
2026-05-06 17:08 42.30895 -71.63798 21865 ft 421 kts 281°
2026-05-06 17:08 42.31692 -71.67582 21864 ft 419 kts 281°
2026-05-06 17:08 42.32491 -71.71394 21872 ft 423 kts 281°
2026-05-06 17:09 42.33296 -71.75240 21871 ft 427 kts 281°
2026-05-06 17:09 42.34104 -71.79102 21860 ft 425 kts 281°
2026-05-06 17:09 42.34893 -71.82945 21859 ft 423 kts 280°
2026-05-06 17:09 42.35584 -71.86806 21857 ft 422 kts 278°
2026-05-06 17:10 42.36221 -71.90676 21860 ft 421 kts 278°
2026-05-06 17:10 42.36841 -71.94551 21873 ft 421 kts 278°
2026-05-06 17:10 42.37461 -71.98425 21869 ft 421 kts 278°
2026-05-06 17:10 42.38067 -72.02167 21861 ft 421 kts 278°
2026-05-06 17:11 42.38699 -72.06036 21851 ft 421 kts 278°
2026-05-06 17:11 42.39121 -72.08600 21856 ft 421 kts 278°
2026-05-06 17:11 42.39759 -72.12466 21860 ft 421 kts 278°
2026-05-06 17:11 42.40397 -72.16333 21862 ft 421 kts 278°
2026-05-06 17:12 42.41036 -72.20203 21853 ft 422 kts 278°
2026-05-06 17:12 42.41674 -72.24077 21855 ft 422 kts 278°
2026-05-06 17:12 42.42313 -72.27960 21861 ft 423 kts 277°
2026-05-06 17:12 42.42950 -72.31850 21843 ft 424 kts 277°
2026-05-06 17:13 42.43589 -72.35755 21851 ft 425 kts 277°
2026-05-06 17:13 42.44227 -72.39663 21843 ft 425 kts 277°
2026-05-06 17:13 42.44863 -72.43572 21849 ft 425 kts 277°
2026-05-06 17:13 42.45498 -72.47475 21855 ft 425 kts 277°
2026-05-06 17:14 42.46132 -72.51387 21847 ft 425 kts 277°
2026-05-06 17:14 42.46763 -72.55295 21844 ft 425 kts 277°
2026-05-06 17:14 42.47395 -72.59206 21849 ft 425 kts 277°
2026-05-06 17:14 42.48024 -72.63113 21861 ft 425 kts 277°
2026-05-06 17:15 42.48644 -72.66977 21851 ft 425 kts 277°
2026-05-06 17:15 42.49272 -72.70892 21841 ft 424 kts 277°
2026-05-06 17:15 42.49896 -72.74796 21838 ft 424 kts 277°
2026-05-06 17:15 42.50518 -72.78700 21839 ft 423 kts 277°
2026-05-06 17:16 42.51138 -72.82597 21841 ft 424 kts 277°
2026-05-06 17:16 42.51758 -72.86507 21846 ft 424 kts 277°
2026-05-06 17:16 42.52377 -72.90418 21842 ft 424 kts 277°
2026-05-06 17:16 42.52995 -72.94329 21841 ft 425 kts 277°
2026-05-06 17:17 42.53612 -72.98242 21840 ft 425 kts 277°
2026-05-06 17:17 42.54209 -73.02039 21844 ft 425 kts 277°
2026-05-06 17:17 42.54823 -73.05955 21842 ft 425 kts 277°
2026-05-06 17:17 42.55437 -73.09871 21803 ft 424 kts 277°
2026-05-06 17:18 42.56048 -73.13780 21843 ft 424 kts 277°
2026-05-06 17:18 42.56658 -73.17697 21820 ft 424 kts 277°
2026-05-06 17:18 42.57206 -73.21606 21820 ft 419 kts 271°
2026-05-06 17:18 42.57043 -73.25490 21830 ft 411 kts 255°
2026-05-06 17:19 42.56217 -73.29135 21827 ft 409 kts 246°
2026-05-06 17:19 42.54839 -73.32488 21826 ft 408 kts 234°
2026-05-06 17:19 42.53055 -73.35489 21823 ft 408 kts 231°
2026-05-06 17:19 42.51197 -73.38459 21820 ft 408 kts 230°
2026-05-06 17:20 42.49382 -73.41340 21821 ft 407 kts 230°
2026-05-06 17:20 42.47551 -73.44261 21815 ft 407 kts 230°
2026-05-06 17:20 42.45728 -73.47191 21812 ft 406 kts 231°
2026-05-06 17:20 42.43917 -73.50119 21812 ft 406 kts 231°
2026-05-06 17:21 42.42106 -73.53056 21786 ft 406 kts 231°
2026-05-06 17:21 42.40301 -73.55985 21792 ft 406 kts 231°
2026-05-06 17:21 42.38492 -73.58921 21802 ft 406 kts 231°
2026-05-06 17:21 42.36681 -73.61857 21792 ft 407 kts 231°
2026-05-06 17:22 42.34863 -73.64800 21791 ft 407 kts 231°
2026-05-06 17:22 42.33050 -73.67734 21798 ft 408 kts 231°
2026-05-06 17:22 42.31231 -73.70675 21789 ft 407 kts 231°
2026-05-06 17:22 42.29415 -73.73605 21783 ft 407 kts 231°
2026-05-06 17:23 42.27585 -73.76520 21778 ft 406 kts 229°
2026-05-06 17:23 42.25481 -73.79078 21779 ft 408 kts 219°
2026-05-06 17:23 42.23104 -73.81199 21774 ft 412 kts 214°
2026-05-06 17:23 42.20543 -73.82964 21783 ft 416 kts 206°
2026-05-06 17:24 42.17785 -73.84214 21791 ft 420 kts 202°
2026-05-06 17:24 42.14986 -73.85361 21786 ft 420 kts 201°
2026-05-06 17:24 42.12188 -73.86503 21787 ft 421 kts 201°
2026-05-06 17:24 42.09385 -73.87654 21792 ft 421 kts 202°
2026-05-06 17:25 42.06585 -73.88812 21776 ft 421 kts 202°
2026-05-06 17:25 42.03786 -73.89977 21790 ft 422 kts 202°
2026-05-06 17:25 42.00980 -73.91150 21796 ft 422 kts 202°
2026-05-06 17:25 41.98174 -73.92324 21801 ft 423 kts 202°
2026-05-06 17:26 41.95363 -73.93499 21805 ft 423 kts 202°
2026-05-06 17:26 41.92557 -73.94671 21808 ft 423 kts 202°
2026-05-06 17:26 41.89746 -73.95844 21811 ft 423 kts 202°
2026-05-06 17:26 41.86940 -73.97014 21795 ft 422 kts 202°
2026-05-06 17:27 41.84140 -73.98179 21804 ft 420 kts 202°
2026-05-06 17:27 41.81353 -73.99338 21817 ft 419 kts 202°
2026-05-06 17:27 41.78668 -74.00455 21843 ft 418 kts 202°
2026-05-06 17:27 41.75891 -74.01609 21822 ft 418 kts 202°
2026-05-06 17:28 41.73112 -74.02746 21829 ft 419 kts 201°
2026-05-06 17:28 41.70278 -74.03533 21819 ft 425 kts 193°
2026-05-06 17:28 41.67331 -74.03955 21823 ft 426 kts 192°
2026-05-06 17:28 41.64345 -74.04378 21820 ft 426 kts 192°
2026-05-06 17:29 41.61437 -74.04804 21824 ft 426 kts 193°
2026-05-06 17:29 41.58488 -74.05250 21825 ft 426 kts 193°
2026-05-06 17:29 41.55541 -74.05705 21821 ft 427 kts 193°
2026-05-06 17:29 41.52593 -74.06163 21825 ft 427 kts 193°
2026-05-06 17:30 41.49646 -74.06621 21799 ft 427 kts 193°
2026-05-06 17:30 41.46696 -74.07079 21819 ft 427 kts 193°
2026-05-06 17:30 41.43741 -74.07537 21817 ft 427 kts 193°
2026-05-06 17:30 41.40785 -74.07995 21830 ft 427 kts 193°
2026-05-06 17:31 41.37870 -74.08642 21828 ft 422 kts 200°
2026-05-06 17:31 41.35096 -74.09852 21834 ft 416 kts 207°
2026-05-06 17:31 41.32486 -74.11470 21841 ft 412 kts 214°
2026-05-06 17:31 41.30076 -74.13510 21828 ft 410 kts 217°
2026-05-06 17:32 41.27686 -74.15593 21834 ft 411 kts 218°
2026-05-06 17:32 41.25286 -74.17668 21831 ft 413 kts 217°
2026-05-06 17:32 41.22873 -74.19738 21835 ft 413 kts 217°
2026-05-06 17:32 41.20457 -74.21800 21844 ft 413 kts 217°
2026-05-06 17:33 41.18032 -74.23864 21848 ft 414 kts 217°
2026-05-06 17:33 41.15608 -74.25926 21841 ft 414 kts 217°
2026-05-06 17:33 41.13214 -74.27958 21851 ft 413 kts 217°
2026-05-06 17:33 41.10728 -74.29888 21816 ft 419 kts 209°
2026-05-06 17:34 41.07879 -74.30884 21864 ft 432 kts 193°
2026-05-06 17:34 41.04829 -74.30865 21856 ft 447 kts 180°
2026-05-06 17:34 41.01781 -74.29807 21863 ft 463 kts 165°
2026-05-06 17:34 40.98946 -74.27661 21869 ft 480 kts 149°
2026-05-06 17:35 40.96577 -74.24446 21859 ft 498 kts 131°
2026-05-06 17:35 40.94706 -74.20566 21866 ft 503 kts 127°
2026-05-06 17:35 40.92859 -74.16656 21781 ft 495 kts 130°
2026-05-06 17:36 40.88285 -74.10367 20403 ft 461 kts 151°
2026-05-06 17:36 40.85619 -74.08129 19680 ft 447 kts 160°
2026-05-06 17:36 40.82890 -74.06218 19031 ft 443 kts 159°
2026-05-06 17:36 40.80206 -74.04238 18363 ft 440 kts 158°
2026-05-06 17:37 40.77558 -74.02238 17614 ft 437 kts 158°
2026-05-06 17:37 40.75036 -74.00005 17032 ft 441 kts 144°
2026-05-06 17:37 40.73011 -73.96971 16336 ft 446 kts 133°
2026-05-06 17:37 40.71215 -73.93661 15669 ft 442 kts 132°
2026-05-06 17:38 40.69413 -73.90412 14981 ft 436 kts 134°
2026-05-06 17:38 40.67592 -73.87245 14350 ft 431 kts 134°
2026-05-06 17:38 40.65809 -73.84137 13814 ft 425 kts 133°
2026-05-06 17:38 40.64149 -73.80923 13172 ft 422 kts 130°
2026-05-06 17:39 40.62572 -73.77718 12602 ft 414 kts 130°
2026-05-06 17:39 40.61012 -73.74572 12094 ft 405 kts 130°
2026-05-06 17:39 40.59466 -73.71515 11609 ft 398 kts 131°
2026-05-06 17:39 40.57937 -73.68519 11147 ft 391 kts 131°
2026-05-06 17:40 40.56623 -73.65373 10648 ft 398 kts 115°
2026-05-06 17:40 40.56243 -73.61736 10159 ft 409 kts 91°
2026-05-06 17:40 40.56891 -73.58102 9892 ft 407 kts 68°
2026-05-06 17:40 40.58353 -73.55007 9897 ft 392 kts 49°
2026-05-06 17:41 40.60372 -73.52722 9898 ft 375 kts 34°
2026-05-06 17:41 40.62470 -73.50789 9885 ft 361 kts 33°
2026-05-06 17:41 40.64506 -73.48958 9867 ft 348 kts 29°
2026-05-06 17:41 40.66533 -73.47453 9851 ft 335 kts 25°
2026-05-06 17:42 40.68627 -73.46020 9053 ft 349 kts 23°
2026-05-06 17:42 40.70865 -73.44625 8119 ft 361 kts 22°
2026-05-06 17:42 40.73247 -73.43590 7151 ft 362 kts
2026-05-06 17:42 40.75713 -73.43816 6303 ft 353 kts 338°
2026-05-06 17:43 40.77879 -73.45134 5618 ft 335 kts 318°
2026-05-06 17:43 40.79557 -73.47105 5098 ft 312 kts 300°
2026-05-06 17:43 40.80729 -73.49408 4635 ft 296 kts 293°
2026-05-06 17:43 40.81686 -73.51728 4183 ft 278 kts 282°
2026-05-06 17:44 40.81911 -73.54125 3903 ft 253 kts 262°
2026-05-06 17:44 40.81664 -73.56326 3674 ft 234 kts 250°
2026-05-06 17:44 40.81159 -73.58324 3532 ft 225 kts 247°
2026-05-06 17:44 40.80643 -73.60227 3311 ft 215 kts 246°
2026-05-06 17:45 40.80161 -73.62019 3129 ft 199 kts 246°
2026-05-06 17:45 40.79521 -73.63526 2929 ft 183 kts 225°
2026-05-06 17:45 40.78530 -73.64497 2772 ft 176 kts 214°
2026-05-06 17:45 40.77500 -73.65316 2626 ft 168 kts 213°
2026-05-06 17:46 40.76842 -73.65829 2509 ft 163 kts 213°
2026-05-06 17:46 40.75566 -73.66826 2307 ft 157 kts 212°
2026-05-06 17:46 40.74620 -73.67568 2176 ft 159 kts 212°